Weather History for Vancouver, WA

Change the Weather History Date:

Tuesday, November 20, 2012

  Actual Average Record
Temperature  
Mean Temperature 52 °F 46 °F  
Max Temperature 57 °F 52 °F 64 °F (2002)
Min Temperature 47 °F 39 °F 13 °F (1900)
Degree Days  
Heating Degree Days 13    
Month to date heating degree days 293  
Since 1 July heating degree days 612  
Cooling Degree Days 0    
Month to date cooling degree days 0  
Year to date cooling degree days 398  
Moisture  
Dew Point 45 °F    
Average Humidity 73    
Maximum Humidity 86    
Minimum Humidity 59    
Precipitation  
Precipitation 0.59 in 0.21 in 3.60 in (1921)
Month to date precipitation 4.62 3.73  
Year to date precipitation 35.78 30.19  
Snow  
Snow 0.00 in - - ()
Month to date snowfall 0.0  
Snow Depth 0.00 in    
Sea Level Pressure  
Sea Level Pressure 29.68 in    
Wind  
Wind Speed 9 mph (SSE)    
Max Wind Speed 21 mph    
Max Gust Speed 36 mph    
Visibility 8 miles    
Events Rain    
T = Trace of Precipitation, MM = Missing Value Source: NWS Daily Summary

Daily Weather History Graph

Daily Weather History Graph

Search for Another Location

Airport:

Trip Planner

Search our weather history database for the weather conditions in past years. The results will help you decide how hot, cold, wet, or windy it might be!

Date:

Astronomy

Nov. 20, 2012 Rise Set
Actual Time 7:17 AM PST 4:34 PM PST
Civil Twilight 6:44 AM PST 5:07 PM PST
Nautical Twilight 6:08 AM PST 5:43 PM PST
Astronomical Twilight 5:33 AM PST 6:19 PM PST
Moon 12:43 PM PST (11/20) No Moon Set
Length of Visible Light 10h 22m
Length of Day
9h 17m
First Quarter, 52% of the Moon is Illuminated
Nov 20
First Quarter
Nov 28
Full
Dec 6
Last Quarter
Dec 13
New
Dec 19
First Quarter

Hourly Weather History & Observations

Time (PST) Temp. Dew Point Humidity Pressure Visibility Wind Dir Wind Speed Gust Speed Precip Events Conditions
12:53 AM 52.0 °F 46.9 °F 83% 29.74 in 10.0 mi SE 4.6 mph - 0.00 in   Overcast
1:38 AM 51.8 °F 48.2 °F 88% 29.72 in 10.0 mi East 9.2 mph - N/A   Overcast
1:53 AM 51.1 °F 46.9 °F 86% 29.73 in 10.0 mi East 9.2 mph - N/A   Overcast
2:53 AM 50.0 °F 46.9 °F 89% 29.74 in 10.0 mi ESE 6.9 mph - N/A   Overcast
3:53 AM 51.1 °F 46.9 °F 86% 29.72 in 10.0 mi ESE 10.4 mph - 0.00 in   Overcast
4:53 AM 48.9 °F 46.0 °F 90% 29.73 in 7.0 mi ESE 6.9 mph - 0.03 in Rain Light Rain
5:53 AM 48.9 °F 45.0 °F 86% 29.71 in 7.0 mi ESE 5.8 mph - 0.07 in Rain Light Rain
6:53 AM 48.9 °F 45.0 °F 86% 29.67 in 10.0 mi ESE 6.9 mph - 0.00 in   Scattered Clouds
7:53 AM 48.9 °F 44.1 °F 83% 29.62 in 10.0 mi ESE 8.1 mph - 0.00 in   Overcast
8:53 AM 50.0 °F 44.1 °F 80% 29.60 in 10.0 mi SE 11.5 mph 21.9 mph N/A   Overcast
9:53 AM 50.0 °F 46.0 °F 86% 29.61 in 6.0 mi SE 4.6 mph - 0.02 in Rain Light Rain
10:38 AM 53.6 °F 48.2 °F 82% 29.64 in 2.0 mi West 10.4 mph - 0.06 in Rain Heavy Rain
10:56 AM 51.8 °F 44.6 °F 76% 29.64 in 1.5 mi SW 9.2 mph 19.6 mph 0.00 in Rain Rain
11:00 AM 51.8 °F 46.4 °F 82% 29.64 in 4.0 mi SSW 11.5 mph 19.6 mph 0.00 in Rain Light Rain
11:53 AM 55.9 °F 48.9 °F 77% 29.64 in 10.0 mi South 9.2 mph 20.7 mph 0.00 in   Scattered Clouds
12:53 PM 55.9 °F 48.9 °F 77% 29.64 in 6.0 mi South 8.1 mph 17.3 mph 0.02 in Rain Rain
1:02 PM 53.6 °F 48.2 °F 82% 29.66 in 1.8 mi SSW 6.9 mph - 0.09 in Rain Heavy Rain
1:05 PM 53.6 °F 48.2 °F 82% 29.66 in 1.0 mi SSW 8.1 mph - 0.16 in Rain Heavy Rain
1:13 PM 53.6 °F 46.4 °F 77% 29.67 in 2.0 mi WSW 12.7 mph 35.7 mph 0.18 in Rain Light Rain
1:15 PM 53.6 °F 44.6 °F 72% 29.68 in 4.0 mi WSW 16.1 mph 35.7 mph 0.18 in Rain Light Rain
1:53 PM 54.0 °F 42.1 °F 64% 29.69 in 10.0 mi SW 11.5 mph 20.7 mph 0.18 in   Clear
2:53 PM 53.1 °F 39.9 °F 61% 29.70 in 10.0 mi SW 10.4 mph 21.9 mph N/A   Scattered Clouds
3:53 PM 52.0 °F 39.9 °F 63% 29.73 in 10.0 mi SSW 12.7 mph 23.0 mph 0.00 in   Overcast
4:53 PM 51.1 °F 39.0 °F 63% 29.75 in 10.0 mi South 8.1 mph 16.1 mph N/A   Clear
5:53 PM 48.9 °F 42.1 °F 77% 29.74 in 10.0 mi ESE 5.8 mph - N/A   Overcast
6:53 PM 50.0 °F 42.1 °F 74% 29.75 in 10.0 mi SE 5.8 mph - N/A   Overcast
7:53 PM 48.0 °F 42.1 °F 80% 29.71 in 10.0 mi SE 6.9 mph - 0.00 in   Overcast
8:53 PM 46.9 °F 43.0 °F 86% 29.71 in 10.0 mi SE 9.2 mph - 0.01 in Rain Light Rain
9:53 PM 46.9 °F 43.0 °F 86% 29.68 in 10.0 mi ESE 10.4 mph - 0.00 in   Overcast
10:53 PM 46.9 °F 42.1 °F 83% 29.64 in 9.0 mi ESE 11.5 mph - 0.00 in Rain Light Rain
11:53 PM 48.0 °F 43.0 °F 83% 29.60 in 10.0 mi ESE 10.4 mph - 0.00 in Rain Light Rain